Regional Weather Roundup
Issued by NWS

Home | Current Version | Previous Version | Graphics & Text | Print | Product List | Glossary On
Versions: 1 2 3 4 5 6 7 8 9 10 11 12 13 14 15 16 17 18 19 20 21 22 23 24 25 26 27 28 29 30 31 32 33 34 35 36 37 38 39 40 41 42 43 44 45 46 47 48 49 50
000
ASUS43 KBIS 070701
RWRND

NORTH DAKOTA REGIONAL WEATHER ROUNDUP
NATIONAL WEATHER SERVICE BISMARCK ND
200 AM CDT THU MAY 07 2015

NOTE: "FAIR" INDICATES FEW OR NO CLOUDS BELOW 12,000 FEET WITH NO
SIGNIFICANT WEATHER AND/OR OBSTRUCTIONS TO VISIBILITY.


NDZ001>003-009>011-017-070800-
NORTHWEST NORTH DAKOTA

CITY           SKY/WX    TMP DP  RH WIND       PRES   REMARKS
WILLISTON      CLOUDY    50  44  80 N16       29.80R
MINOT          CLOUDY    54  52  93 NW18G29   29.64S
MINOT AFB      DRIZZLE   55  55 100 NW22      29.63F
$$

NDZ018>021-031>035-040>046-070800-
SOUTHWEST NORTH DAKOTA

CITY           SKY/WX    TMP DP  RH WIND       PRES   REMARKS
BISMARCK       LGT RAIN  58  57  97 NW12      29.63R FOG
DICKINSON      LGT RAIN  49  47  93 NW17      29.72R
GARRISON         N/A     54  52  93 N22       29.65R
HETTINGER ARPT LGT RAIN  48  46  93 NW24G31   29.72S
$$

NDZ004>008-012>016-024-026-027-054-070800-
NORTHEAST NORTH DAKOTA

CITY           SKY/WX    TMP DP  RH WIND       PRES   REMARKS
GRAND FORKS    MOCLDY    63  60  90 S16       29.63F
DEVILS LAKE    CLOUDY    61  57  88 S13       29.58S
$$

NDZ022-023-025-028>030-036>039-047>053-070800-
SOUTHEAST NORTH DAKOTA

CITY           SKY/WX    TMP DP  RH WIND       PRES   REMARKS
FARGO          CLOUDY    65  60  84 SE17G24   29.65F
JAMESTOWN      MOCLDY    57  55  93 S10       29.60F
$$




USA.gov is the U.S. government's official web portal to all federal, state and local government web resources and services.